Weather in Kopichintsi

Ukraine / Ternopil District     49°06′31″N   25°55′14″E
temp.,
°C
wind,
m/s
gust,
m/s
humid.,
%
clouds,
%
prec.,
mm/h
press.,
hPa
HPBL,
m
23 april, fri
fri2300:00+6nw4890100 2.1 1018656
03:00+4wnw3791100 2.1 1019311
06:00+4wnw3690100 0.0 1019236
09:00+6nw4675100 0.0 1020485
12:00+9nw455183 0.0 10201735
15:00+9wnw564696 0.0 10201806
18:00+9nw795254 0.1 10191924
21:00+5nw357444 0.3 1021114
24 april, sat
sat2400:00+4wnw397875 0.0 1022226
03:00+2wnw49875 0.0 1023238
06:00+2wnw411875 0.0 1022322
09:00+4nw6107890 0.0 1024903
12:00+7nw5759100 0.1 10231593
15:00+9nw595389 0.3 10221875
18:00+9nw6105295 0.0 10211843
21:00+5wnw227199 0.0 102313
25 april, sun
sun2500:00+5wsw2277100 0.0 102235
03:00+5sw3778100 0.0 1021200
06:00+5w3781100 0.1 1020201
09:00+7wnw5671100 0.2 10201010
12:00+8nw5664100 0.2 10201399
15:00+8nnw6653100 0.3 10201563
18:00+8nw5745100 0.0 10201814
21:00+4nnw355896 0.0 102184
26 april, mon
mon2600:00+3n1263100 0.0 102116
03:00+1wnw237071 0.0 102144
06:000wnw36740 0.0 1021125
09:00+5wnw58570 0.0 1021859
12:00+8wnw6744100 0.0 10202382
15:00+9nw5841100 0.0 10182233
18:00+9nnw454536 0.0 10171652
21:00+5ne1156100 0.0 101710
27 april, tue
tue2700:00+6nnw2356100 0.1 101764
03:00+2n227671 0.1 101724
06:00+1nne349596 0.0 1017214
09:00+3se2284100 0.0 1017448
12:00+9se336156 0.0 10161150
15:00+11se5548100 0.0 10131449
18:00+12se5853100 0.0 10111448
21:00+10se51065100 0.0 1011594